Preview of NWS' New Version of Forecast
This preview is not operational and should not be used for support decisions.
Latest weather observations around

Knoxville, McGhee Tyson Airport (KTYS)

Using English Units (Switch to International System of Units)
Date/ Time (EDT) Wind (mph) Vis. (mi) Weather Sky Cond. Temp (°F) Rel. Humidity Wind Chill (°F) Heat Index (°F) Pressure Precip. (in)
Air Dwpt 6 hour Altimeter (inHg) Sea level (inHg) 1 hr 3 hr 6 hr
Max Min
Jun 19 13:53 S 8 10 Mostly Cloudy SCT016 BKN065 BKN100 76 72     88%   77   29.81      
Jun 19 13:43 S 9 10 Mostly Cloudy SCT016 BKN065 BKN100 75 71     88%   76          
Jun 19 12:53 SW 8 10 Cloudy FEW011 SCT017 OVC024 76 70     82%   77   29.83 0    
Jun 19 11:53 SSW 7 8 Cloudy SCT010 OVC017 74 70     87%   75   29.83      
Jun 19 11:42 SW 8 10 Cloudy SCT011 OVC017 73 69     87%   74     0    
Jun 19 10:53 SW 11 7 Cloudy BKN008 OVC023 73 69     87%   74   29.84   0  
Jun 19 10:38 SSW 10 7 Cloudy BKN008 OVC023 72 69     91%   73          
Jun 19 09:53 SW 7 6 Fog/Mist SCT008 BKN023 OVC037 71 68     90%   72   29.84 0    
Jun 19 08:53 SW 5 4 Drizzle and Fog/Mist SCT006 BKN023 OVC036 71 69     93%   72   29.83 0    
Jun 19 08:44 SW 6 2 Drizzle and Fog/Mist SCT006 BKN023 OVC036 70 69     97%         0    
Jun 19 07:53 WSW 5 2 Light Rain and Fog/Mist FEW002 BKN034 BKN043 OVC250 69 68     96%       29.83 0   0
Jun 19 07:42 W 5 2 Rain and Fog/Mist FEW002 BKN034 OVC043 69 68     96%         0    
Jun 19 07:28 WSW 6 1.5 Heavy Rain and Fog/Mist BKN032 OVC046 70 68     93%         0    
Jun 19 07:15 W 7 2 Rain and Fog/Mist BKN030 OVC036 70 68     93%         0    
Jun 19 07:13 W 6 2 Rain and Fog/Mist OVC032 70 68     93%         0    
Jun 19 07:02 W 8 1.75 Heavy Rain and Fog/Mist OVC032 70 68     93%         0    
Jun 19 06:53 W 8 1.25 Heavy Rain and Fog/Mist BKN028 OVC034 70 68     93%       29.83 0    
Jun 19 06:47 W 9 1.25 Rain and Fog/Mist SCT024 OVC032 70 68     94%         0    
Jun 19 05:53 Calm 10 Cloudy OVC032 71 68     90%   72   29.83      
Jun 19 04:53 SSW 5 10 Mostly Cloudy BKN039 71 68     90%   72   29.84      
Jun 19 03:53 SW 3 10 Patchy Fog BKN041 BKN060 71 68     90%   72   29.84      
Jun 19 02:53 SSW 3 10 Partly Cloudy SCT045 70 69     97%       29.85      
Jun 19 01:53 W 3 10 Cloudy FEW036 SCT043 OVC055 73 69     87%   74   29.86     0
Jun 19 00:53 NNW 3 10 Mostly Cloudy BKN150 BKN250 72 69     91%   73   29.87      
Jun 18 23:53 Calm 10 Cloudy FEW110 OVC250 73 68     84%   74   29.86 0    
Jun 18 22:53 SW 5 10 Cloudy SCT120 OVC250 74 69     85%   75   29.88   0  
Jun 18 21:53 Calm 10 Cloudy FEW050 OVC250 75 72     90%   76   29.87 0    
Jun 18 20:53 ENE 5 10 Cloudy FEW050 SCT110 OVC250 76 72     88%   77   29.86 0    
Jun 18 19:53 Calm 10 Cloudy FEW055 FEW120 OVC250 78 70     76%   79   29.87 0   0
Jun 18 18:53 WSW 3 10 Cloudy FEW100 SCT120 OVC250 78 70     76%   79   29.88      
Jun 18 17:53 SW 6 10 Cloudy SCT011 BKN120 OVC250 79 70     74%   82   29.88      
Jun 18 17:15 SW 7 10 Cloudy SCT016 OVC250 78 71     79%   79 29.92        
Jun 18 16:53 S 6 10 Cloudy BKN015 OVC250 78 71     79%   79   29.89   0  
Jun 18 16:43 SSW 3 10 Cloudy BKN015 OVC250 78 71     79%   79          
Jun 18 15:53 Calm 10 Cloudy FEW008 SCT039 OVC080 77 70     79%   78   29.91 0    
Jun 18 15:05 SE 5 6 Light Rain and Fog/Mist SCT008 SCT039 OVC055 73 70     90%   74     0    
Jun 18 14:53 SE 9 2 Light Rain and Fog/Mist SCT008 BKN035 OVC070 73 70     90%   74   29.93 0    
Jun 18 14:49   2 Light Rain and Fog/Mist SCT008 BKN035 OVC080 72 70     94%   73     0    
Jun 18 14:29 ESE 5 1 Light Rain and Fog/Mist SCT008 BKN031 OVC055 73 70     90%   74     0    
Jun 18 14:20 Calm 2 Light Rain and Fog/Mist SCT008 BKN031 OVC055 73 70     90%   74     0    
Jun 18 14:02 Calm 4 Light Rain FEW008 BKN031 OVC055 74 69     85%   75     0    
Jun 18 13:53 Calm 3 Light Rain and Fog/Mist BKN031 BKN055 OVC070 74 70     87%   75   29.96 0   1
Jun 18 13:30 5 1.5 Light Rain and Fog/Mist FEW005 BKN031 OVC055 72 69     91%   73     0    
Jun 18 12:53 SSW 3 1.5 Fog/Mist SCT008 BKN015 OVC024 72 69     91%   73   29.98 0    
Jun 18 12:22 SSE 6 1.5 Light Rain and Fog/Mist FEW007 BKN025 OVC031 71 70     96%   72     0    
Jun 18 12:15 SE 8 1.5 Light Rain and Fog/Mist SCT007 BKN017 OVC033 71 70     96%   72     0    
Jun 18 11:56 SSW 6 1 Heavy Rain and Fog/Mist SCT009 BKN014 OVC024 72 69     91%   73     0    
Jun 18 11:53 S 6 1 Rain and Fog/Mist FEW009 BKN035 OVC100 72 69     91%   73   29.98 0    
Jun 18 11:50 Calm 1.5 Light Rain and Fog/Mist FEW009 BKN035 OVC100 72 70     94%   73     0    
Jun 18 11:37 Calm 1.5 Light Rain FEW009 BKN035 OVC100 73 68     84%   74     0    
Jun 18 10:53 Calm 10 Light Rain FEW009 BKN035 OVC100 73 70     90%   74   29.97 0 0  
Jun 18 10:36 W 6 10 Light Rain FEW009 SCT035 OVC100 74 70     87%   75     0    
Jun 18 09:53 Calm 10 Cloudy BKN035 BKN055 OVC100 75 69     82%   76   29.97      
Jun 18 08:53 ENE 6 8 Cloudy SCT050 OVC110 71 69     93%   72   29.97 0    
Jun 18 07:53 ENE 3 10 Light Rain SCT035 BKN110 70 68     93%       29.97 0   0
Jun 18 06:53 ENE 6 6 Light Rain and Fog/Mist FEW001 SCT036 BKN120 OVC250 70 68     93%       29.97 0    
Jun 18 05:53 NE 3 10 Cloudy FEW050 BKN150 OVC250 70 67     90%       29.97      
Jun 18 05:15 Calm 10 Cloudy FEW006 FEW050 SCT090 OVC250 70 68     93%              
Jun 18 04:53 ESE 3 10 Cloudy SCT048 BKN065 OVC250 70 68     93%       29.97      
Jun 18 03:53 Calm 10 Cloudy SCT046 BKN055 BKN070 OVC250 70 68     93%       29.97      
Jun 18 02:53 NNW 3 10 Mostly Cloudy SCT047 SCT055 BKN150 BKN250 71 68     90%   72   29.96      
Jun 18 01:53 NE 5 10 Cloudy FEW060 SCT120 OVC250 71 68     90%   72   29.98     0
Jun 18 00:53 Calm 10 Mostly Cloudy SCT055 BKN150 BKN250 72 69     91%   73   29.98      
Jun 18 00:19 Calm 10 Mostly Cloudy FEW050 BKN060 BKN110 73 69     87%   74          
Jun 17 23:53 E 3 10 Cloudy SCT060 SCT100 OVC250 73 69     87%   74   30      
Jun 17 22:53 NE 3 10 Mostly Cloudy FEW110 FEW150 BKN250 73 69     87%   74   29.98   0  
Jun 17 21:53 ENE 5 10 Cloudy OVC250 75 68     79%   76   29.98      
Jun 17 20:53 ESE 5 10 Cloudy FEW043 FEW085 BKN150 OVC250 76 69     79%   77   29.98 0    
Jun 17 19:53 SSE 8 10 Light Rain FEW043 SCT085 BKN100 OVC150 77 69     77%   78   29.97 0   0
Jun 17 18:53 SSE 5 10 Cloudy FEW055 FEW110 BKN150 OVC250 81 67     62%   83   29.98      
Jun 17 17:53 E 6 10 Cloudy FEW055 BKN110 OVC250 81 67     62%   83   29.96      
Jun 17 16:53 E 8 10 Cloudy FEW055 BKN110 OVC250 77 69     77%   78   29.98 0 0  
Jun 17 16:33 NW 8 10 Light Rain FEW055 BKN110 OVC250 74 67     79%   75     0    
Jun 17 15:53   10 Thunderstorms SCT055 SCT090 BKN180 OVC250 80 67     64%   82   29.97 0    
Jun 17 15:39 WNW 9 10 Thunderstorms SCT055 SCT090 BKN180 OVC250 81 68     65%   84     0    
Jun 17 15:24 WNW 11 8 Light Rain SCT055 SCT090 BKN180 OVC250 82 68     63%   85     0    
Jun 17 15:15 NW 11 10 Mostly Cloudy FEW055 SCT090 SCT120 BKN180 BKN250 83 67     59%   86          
Jun 17 15:10 NW 11 10 Mostly Cloudy FEW055 SCT090 BKN180 BKN250 83 68     61%   86          
Jun 17 15:02   10 Mostly Cloudy SCT055 BKN090 83 68     61%   86          
Jun 17 14:53 WNW 13 10 Mostly Cloudy SCT050 BKN180 BKN250 87 67     51%   90   29.96      
Jun 17 14:51 W 14 10 Mostly Cloudy SCT050 BKN180 BKN250 88 66     49%   90          
Jun 17 13:53 WSW 10 10 Mostly Cloudy SCT055 BKN180 BKN250 89 66     47%   92   29.97      
Jun 17 12:53 WNW 8 10 Mostly Cloudy SCT050 BKN200 BKN250 87 67     51%   90   30.01      
Jun 17 11:53 SW 6 10 Mostly Cloudy SCT043 BKN055 BKN200 BKN250 86 68     55%   89   30.01      
Jun 17 10:53 SW 10 10 Mostly Cloudy FEW037 BKN200 BKN250 85 67     55%   88   30.01      
Jun 17 09:53 SW 5 10 Mostly Cloudy SCT055 BKN070 BKN180 BKN250 80 68     67%   83   30.01      
Jun 17 08:53 SW 6 10 Cloudy FEW047 BKN065 OVC200 76 67     74%   77   30.01      
Jun 17 07:53 Calm 10 Cloudy SCT047 BKN060 BKN150 OVC250 75 67     76%   76   29.99      
Jun 17 06:53 NE 3 10 Cloudy FEW150 OVC250 72 66     82%   73   29.97      
Jun 17 05:53 W 6 10 Cloudy OVC250 74 66     76%   75   29.95      
Jun 17 04:53 WSW 5 10 Cloudy OVC250 74 66     76%   75   29.94      
Jun 17 03:53 SW 5 10 Cloudy OVC250 75 66     74%   76   29.93      
Jun 17 02:53 SSW 9 10 Cloudy OVC250 73 67     81%   74   29.94      
Jun 17 01:53 WSW 10 10 Clear   77 66     69%   78   29.96      
Jun 17 00:53 SSW 9 10 Mostly Cloudy BKN150 76 67     74%   77   29.96      
Jun 16 23:53 SW 7 10 Partly Cloudy SCT250 78 67     69%   79   29.98      
Jun 16 22:53 SW 9 10 Partly Cloudy SCT250 78 67     69%   79   29.96      
Jun 16 21:53 SSW 11 10 Partly Cloudy FEW045 SCT250 79 66     65%   80   29.91      
Jun 16 20:53 SW 8 10 Partly Cloudy FEW045 SCT250 80 66     62%   82   29.9      
Jun 16 19:53 WSW 9 10 Mostly Cloudy SCT045 SCT150 BKN250 83 67     59%   86   29.89      
Jun 16 18:53 WSW 10 10 Mostly Cloudy SCT045 SCT150 BKN250 87 67     51%   90   29.89      
Jun 16 17:53 SW 13 10 Mostly Cloudy SCT045 SCT150 BKN250 88 65     47%   90   29.91      
Jun 16 16:53   10 Partly Cloudy SCT045 SCT080 89 67     48%   92   29.9      
Jun 16 15:53   10 Partly Cloudy SCT050 SCT080 89 68     50%   93   29.93      
Jun 16 14:53 WSW 17 10 Mostly Cloudy BKN042 88 68     52%   92   29.95      
Jun 16 13:53   10 Cloudy SCT041 BKN055 OVC250 86 68     55%   89   29.96      
May 12 03:53 W 6 10 Clear CLR 69 61     75%       30.06      
May 12 01:53 SSW 3 10 Clear CLR 71 61     70%   71   30.05      
Jun 12 01:53 Calm 10 Cloudy SCT060 OVC250 73 65     76%   74   30.11      
Jun 11 16:53 W 8 10 Cloudy FEW060 SCT080 OVC250 85 62     46%   86   30.12      
Jun 10 21:53 ESE 5 10 Mostly Cloudy BKN250 76 62     62%   76   30.06      
Jun 08 11:53 W 5 10 Mostly Cloudy BKN036 BKN055 67 56     68%       29.92 0    
Jun 08 08:53 NNE 3 10 Mostly Cloudy FEW055 BKN085 64 55     73%       29.91      
Jun 07 13:53 NNE 9 10 Cloudy SCT055 OVC250 76 50     40%   75   29.85      
Jun 06 08:18 N 5 0.5 Fog VV002 66 65     96%              
Jun 06 05:53 Calm 0.12 Fog VV002 66 65     96%       29.79      
Jun 05 17:26 Calm 10 Cloudy BKN014 OVC110 71 66     84%   72     0